Погода в Джорджтауне

Гайана     6°48′25″N   58°07′15″W
темп.,
°C
ветер,
м/с
пор.,
м/с
влажн.,
%
обл.,
%
осадки,
мм/ч
давл.,
гПа
погр.,
м
19 апреля, пн
пн1923:00+26всв587743 0.1 1014721
02:00+25св587999 0.5 1013586
05:00+24св478360 0.4 1014462
08:00+27св4772100 0.9 1016898
11:00+27св687742 1.9 1016977
14:00+28св5663100 2.8 10131176
17:00+27св4669100 0.0 1012994
20:00+25св477499 0.1 1014611
20 апреля, вт
вт2023:00+25св4774100 0.1 1015627
02:00+24св4677100 0.1 1012489
05:00+24св3584100 0.2 1013373
08:00+26всв357772 0.7 1015786
11:00+28всв4562100 0.6 10151198
14:00+28св44635 0.6 10131082
17:00+27св3569100 0.0 1012894
20:00+25всв3677100 0.0 1014469
21 апреля, ср
ср2123:00+25всв467999 0.0 1014529
02:00+24всв3678100 0.0 1013440
05:00+24всв2482100 0.0 1013372
08:00+26в3478100 1.0 1015538
11:00+28всв346937 2.4 1015839
14:00+28всв4569100 3.7 1012834
17:00+26св3580100 0.3 1012639
20:00+25всв4686100 0.6 1014427
22 апреля, чт
чт2223:00+25всв368819 0.5 1014367
02:00+24всв368911 1.0 1012349
05:00+24всв36907 2.4 1013328
08:00+26всв46860 6.3 1015583
11:00+27всв457711 3.3 1015775
14:00+28св457496 4.7 1012874
17:00+26св468532 1.6 1011581
20:00+25всв588920 2.9 1013492
23 апреля, пт
пт2323:00+25всв488924 1.9 1014472
02:00+25всв479020 3.7 1012416
05:00+24всв4689100 1.5 1013367
08:00+26всв468515 3.3 1014683
11:00+27всв4683100 2.4 1014767
14:00+27всв4684100 4.8 1011706
17:00+26св4687100 2.1 1011488
20:00+25св4789100 3.6 1013439